Regional Weather Roundup
Issued by NWS

Home | Current Version | Previous Version | Graphics & Text | Print | Product List | Glossary On
Versions: 1 2 3 4 5 6 7 8 9 10 11 12 13 14 15 16 17 18 19 20 21 22 23 24 25 26 27 28 29 30 31 32 33 34 35 36 37 38 39 40 41 42 43 44 45 46 47 48 49 50
000
ASUS43 KLMK 210202
RWRKY
KENTUCKY REGIONAL WEATHER ROUNDUP
NATIONAL WEATHER SERVICE LOUISVILLE KY
900 PM EST FRI JAN 20 2017

NOTE "FAIR" INDICATES FEW OR NO CLOUDS BELOW 12,000 FEET
WITH NO SIGNIFICANT WEATHER AND/OR OBSTRUCTIONS TO VISIBILITY.

KYZ001>023-026-027-061>063-070>075-210300-
WESTERN AND SOUTH CENTRAL KENTUCKY

CITY           SKY/WX    TMP DP  RH WIND       PRES   REMARKS
PADUCAH        CLEAR     56  51  84 S7        29.66S
HENDERSON      CLEAR     55  48  76 S7        29.68S
OWENSBORO      CLOUDY    55  52  89 SE7       29.70F
HOPKINSVILLE   PTCLDY    59  53  80 SE6       29.71F
BOWLING GREEN  CLOUDY    58  51  78 S6        29.74S
GLASGOW        NOT AVBL
$$

KYZ024-025-028>034-038-045-046-053-210300-
NORTH CENTRAL KENTUCKY

CITY           SKY/WX    TMP DP  RH WIND       PRES   REMARKS
LOUISVILLE/SDF CLOUDY    57  49  74 S8        29.73R
LOUISVILLE/LOU MOCLDY    58  49  72 S5        29.73S
FORT KNOX      CLOUDY    55  50  82 SE7       29.72R
$$

KYZ035>037-039>044-047>052-055>060-089>105-210300-
NORTHEAST KENTUCKY

CITY           SKY/WX    TMP DP  RH WIND       PRES   REMARKS
LEXINGTON      PTCLDY    52  46  80 SE7       29.77F
COVINGTON      CLOUDY    52  48  86 SE5       29.74F
FRANKFORT      PTCLDY    53  46  77 SE6       29.74F
$$

KYZ054-064>069-076>088-106>120-210300-
SOUTHEAST KENTUCKY

CITY           SKY/WX    TMP DP  RH WIND       PRES   REMARKS
JACKSON        CLOUDY    59  49  69 S3        29.82R
LONDON         CLOUDY    53  46  77 SE3       29.80S
SOMERSET       NOT AVBL
MIDDLESBORO    CLOUDY    49  48  96 CALM      29.84R
MONTICELLO     CLOUDY    46  44  93 W3        29.81S
$$





USA.gov is the U.S. government's official web portal to all federal, state and local government web resources and services.